| time (UTC) | temp C | wind direction | speed KPH | gust KPH | rain 1hr cm | rain 24hr cm | rain mn cm | humidity % | barometer mb |
| 20260506153643 | 15 | 218 | 0.0 | 1.6 | 0.00 | 1.85 | 1.42 | 70 | 969.3 |
| 20260506150643 | 15 | 144 | 0.0 | 12.9 | 0.00 | 1.85 | 1.42 | 72 | 969.3 |
| 20260506143643 | 15 | 161 | 0.0 | 0.0 | 0.00 | 1.85 | 1.42 | 70 | 969.6 |
| 20260506140644 | 15 | 136 | 0.0 | 0.0 | 0.00 | 1.85 | 1.42 | 69 | 969.9 |
| 20260506133640 | 15 | 161 | 0.0 | 0.0 | 0.00 | 1.85 | 1.42 | 74 | 970.2 |
| 20260506130639 | 15 | 0 | 0.0 | 0.0 | 0.00 | 1.85 | 1.42 | 74 | 970.3 |
| 20260506123639 | 16 | 285 | 0.0 | 0.0 | 0.00 | 1.85 | 1.42 | 67 | 970.3 |
| 20260506120638 | 17 | 323 | 0.0 | 0.0 | 0.00 | 1.85 | 1.42 | 71 | 970.2 |
| 20260506113638 | 16 | 78 | 0.0 | 0.0 | 0.00 | 1.85 | 1.42 | 74 | 970.2 |
| 20260506110635 | 14 | 37 | 0.0 | 0.0 | 0.05 | 1.85 | 1.42 | 85 | 970.4 |
| 20260506103636 | 12 | 207 | 0.0 | 0.0 | 0.05 | 1.85 | 1.42 | 94 | 970.7 |
| 20260506100635 | 11 | 0 | 0.0 | 0.0 | 0.00 | 1.83 | 1.37 | 95 | 970.7 |
| 20260506093632 | 11 | 265 | 0.0 | 0.0 | 0.00 | 1.83 | 1.37 | 96 | 970.4 |
| 20260506090631 | 10 | 0 | 0.0 | 0.0 | 0.08 | 1.83 | 1.37 | 96 | 970.2 |
| 20260506083630 | 10 | 0 | 0.0 | 0.0 | 0.20 | 1.85 | 1.37 | 96 | 970.0 |
| 20260506082028 | 10 | 270 | 0.0 | 0.0 | 0.23 | 1.80 | 1.30 | 95 | 969.6 |
| 20260506070633 | 10 | 279 | 0.0 | 0.0 | 0.20 | 1.57 | 1.07 | 96 | 968.6 |
| 20260506062009 | 10 | 0 | 0.0 | 0.0 | 0.08 | 1.40 | 0.86 | 96 | 967.9 |
| 20260506050644 | 10 | 0 | 0.0 | 0.0 | 0.23 | 1.40 | 0.79 | 95 | 967.4 |
| 20260506043631 | 10 | 0 | 0.0 | 0.0 | 0.23 | 1.32 | 0.69 | 95 | 967.3 |
| 20260506040633 | 10 | 0 | 0.0 | 0.0 | 0.23 | 1.19 | 0.56 | 95 | 967.2 |
| 20260506033632 | 10 | 0 | 0.0 | 0.0 | 0.18 | 1.12 | 0.43 | 95 | 967.3 |
| 20260506030630 | 10 | 0 | 0.0 | 0.0 | 0.20 | 1.09 | 0.33 | 95 | 967.5 |
| 20260506023629 | 10 | 161 | 0.0 | 0.0 | 0.18 | 1.04 | 0.23 | 95 | 967.6 |
| 20260506020629 | 10 | 140 | 0.0 | 0.0 | 0.10 | 0.99 | 0.15 | 95 | 967.6 |
| 20260506013625 | 10 | 139 | 0.0 | 0.0 | 0.05 | 0.97 | 0.08 | 95 | 967.8 |
| 20260506010626 | 10 | 135 | 0.0 | 0.0 | 0.00 | 0.99 | 0.05 | 95 | 968.3 |
| 20260506005006 | 10 | 132 | 0.0 | 0.0 | 0.03 | 1.14 | 0.05 | 94 | 968.3 |
| 20260506002008 | 10 | 133 | 0.0 | 0.0 | 0.03 | 1.17 | 0.03 | 94 | 969.0 |
| 20260505233622 | 10 | 133 | 0.0 | 0.0 | 0.03 | 1.22 | 0.00 | 94 | 969.3 |
| 20260505230621 | 10 | 132 | 0.0 | 0.0 | 0.00 | 1.24 | 0.00 | 94 | 969.5 |
| 20260505223618 | 10 | 0 | 0.0 | 0.0 | 0.00 | 1.37 | 0.00 | 93 | 969.5 |
| 20260505220619 | 10 | 143 | 0.0 | 0.0 | 0.10 | 1.45 | 0.00 | 92 | 969.9 |
| 20260505213619 | 10 | 242 | 0.0 | 0.0 | 0.15 | 1.63 | 1.47 | 92 | 970.2 |
| 20260505210619 | 10 | 0 | 0.0 | 1.6 | 0.10 | 1.63 | 1.40 | 91 | 971.0 |
| 20260505203620 | 11 | 0 | 0.0 | 9.7 | 0.20 | 1.60 | 1.35 | 90 | 970.6 |
| 20260505200616 | 11 | 0 | 0.0 | 19.3 | 0.23 | 1.57 | 1.27 | 88 | 969.7 |
| 20260505193618 | 12 | 0 | 1.6 | 33.8 | 0.08 | 1.42 | 1.12 | 85 | 969.5 |
| 20260505190614 | 13 | 0 | 0.0 | 16.1 | 0.00 | 1.35 | 1.07 | 85 | 968.4 |
| 20260505183615 | 13 | 271 | 0.0 | 8.0 | 0.00 | 1.35 | 1.07 | 84 | 968.3 |
| 20260505182001 | 14 | 0 | 0.0 | 1.6 | 0.00 | 1.35 | 1.07 | 84 | 968.0 |
| 20260505173616 | 14 | 0 | 0.0 | 0.0 | 0.00 | 1.35 | 1.07 | 84 | 968.4 |
| 20260505170614 | 15 | 0 | 0.0 | 0.0 | 0.00 | 1.37 | 1.07 | 83 | 968.2 |
| 20260505163615 | 15 | 0 | 0.0 | 0.0 | 0.00 | 1.40 | 1.07 | 81 | 968.6 |
| 20260505160615 | 16 | 232 | 0.0 | 0.0 | 0.00 | 1.42 | 1.07 | 79 | 968.8 |